Location: Newark
(50.0306°N, 2.3272°E)
Time: 11:48:40
(UTC+00:00)

Vanguard 1 - Pass Details

Date: 10 December 2019
Orbit: 651 x 3832 km, 34.2° (Epoch: 17 January)

Event Time Altitude Azimuth Distance (km) Brightness Sun altitude
Exits shadow 05:18:37 - 241° (WSW) 7,774 14.2 -21.2°
Reaches altitude 10° 05:23:31 10° 237° (WSW) 6,936 14.0 -20.4°
Maximum altitude 05:44:26 46° 174° (S) 4,002 13.2 -17.2°
Drops below altitude 10° 05:58:59 10° 108° (ESE) 4,973 15.1 -14.9°
Sets 06:02:17 0° 102° (ESE) 5,615 15.8 -14.4°
